{"data":{"norad_id":68524,"intl_designator":"2026-068S","name":"STARLINK-36302","alt_names":[],"object_type":"PAYLOAD","status":"ACTIVE","operator":null,"country":"US","launch_date":"2026-03-30","launch_site_code":"AFETR","launch_vehicle":null,"mission":null,"orbit_class":"UNKNOWN","rcs_meters":null,"size_class":null,"mass_kg":null,"dimensions":null,"purposes":["comms"],"wikipedia_slug":null,"has_3d_model":false,"image_url":null,"decayed_at":null,"tle_current":{"epoch":"2026-05-25T03:02:33.218304Z","epoch_age_seconds":57945,"freshness":"FRESH","line1":"1 68524U 26068S   26145.12677336  .00017572  00000+0  52996-3 0  9995","line2":"2 68524  53.1579 133.1033 0001469 104.4034 255.7131 15.34400235  8668","mean_motion":15.34400235,"eccentricity":0.0001469,"inclination_deg":53.1579,"raan_deg":133.1033,"arg_perigee_deg":104.4034,"mean_anomaly_deg":255.7131,"bstar":0.00052996,"rev_number":866,"period_min":93.847743708147,"perigee_km":461.69762240899,"apogee_km":463.70746106635,"semimajor_km":6840.8395417377,"source":"CELESTRAK","updated_at":"2026-05-25T13:38:21.955810Z"}}}